Weather History for Youngstown, OH

Change the Weather History Date:

Friday, August 23, 2013

  Actual Average Record
Temperature  
Mean Temperature 69 °F 68 °F  
Max Temperature 81 °F 79 °F 95 °F (1898)
Min Temperature 56 °F 58 °F 43 °F (1973)
Degree Days  
Heating Degree Days 0 1  
Month to date heating degree days 25 18  
Since 1 June heating degree days 94 100  
Since 1 July heating degree days 38 31  
Cooling Degree Days 4 4  
Month to date cooling degree days 63 122  
Year to date cooling degree days 489 456  
Since 1 June cooling degree days 401 417  
Growing Degree Days 19 (Base 50)    
Moisture  
Dew Point 58 °F    
Average Humidity 64    
Maximum Humidity 93    
Minimum Humidity 35    
Precipitation  
Precipitation T in 0.11 in 1.28 in (1956)
Month to date precipitation 1.19 2.38  
Year to date precipitation 25.78 25.36  
Snow  
Snow 0.00 in 0.00 in - ()
Month to date snowfall 0.0 0.0  
Since 1 June snowfall T 0.0  
Since 1 July snowfall 0.0 0.0  
Snow Depth 0.00 in    
Sea Level Pressure  
Sea Level Pressure 30.08 in    
Wind  
Wind Speed 7 mph (NNE)    
Max Wind Speed 16 mph    
Max Gust Speed 22 mph    
Visibility 9 miles    
Events Rain    
T = Trace of Precipitation, MM = Missing Value Source: NWS Daily Summary

Daily Weather History Graph

Daily Weather History Graph

Search for Another Location

Airport:

Trip Planner

Search our weather history database for the weather conditions in past years. The results will help you decide how hot, cold, wet, or windy it might be!

Date:

Astronomy

Aug. 23, 2013 Rise Set
Actual Time 6:40 AM EDT 8:09 PM EDT
Civil Twilight 6:11 AM EDT 8:38 PM EDT
Nautical Twilight 5:36 AM EDT 9:13 PM EDT
Astronomical Twilight 4:59 AM EDT 9:49 PM EDT
Moon 9:24 PM EDT (8/23) 9:36 AM EDT (8/23)
Length of Visible Light 14h 26m
Length of Day
13h 29m
Waning Gibbous, 91% of the Moon is Illuminated
Aug 23
Waning Gibbous
Aug 28
Last Quarter
Sep 5
New
Sep 12
First Quarter
Sep 19
Full

Hourly Weather History & Observations

Time (EDT) Temp. Heat Index Dew Point Humidity Pressure Visibility Wind Dir Wind Speed Gust Speed Precip Events Conditions
12:51 AM 69.1 °F - 64.9 °F 87% 30.02 in 10.0 mi NNE 3.5 mph - N/A   Overcast
1:51 AM 66.9 °F - 64.0 °F 90% 30.02 in 7.0 mi Calm Calm - N/A   Overcast
2:51 AM 68.0 °F - 64.0 °F 87% 30.01 in 8.0 mi NNW 3.5 mph - N/A   Overcast
3:51 AM 66.9 °F - 64.9 °F 93% 30.01 in 7.0 mi NW 3.5 mph - 0.00 in Rain Light Rain
4:51 AM 66.9 °F - 64.9 °F 93% 30.02 in 6.0 mi NNW 3.5 mph - 0.00 in Rain Light Rain
5:51 AM 66.9 °F - 64.9 °F 93% 30.01 in 7.0 mi East 5.8 mph - 0.00 in   Overcast
6:51 AM 66.0 °F - 64.9 °F 96% 30.04 in 5.0 mi NW 4.6 mph - N/A   Overcast
7:51 AM 66.9 °F - 64.9 °F 93% 30.06 in 5.0 mi NE 5.8 mph - 0.00 in   Overcast
8:51 AM 68.0 °F - 64.0 °F 87% 30.07 in 10.0 mi NNE 10.4 mph - N/A   Mostly Cloudy
9:51 AM 71.1 °F - 62.1 °F 73% 30.09 in 10.0 mi NNE 5.8 mph - N/A   Mostly Cloudy
10:51 AM 75.9 °F - 59.0 °F 56% 30.09 in 10.0 mi NNE 6.9 mph - N/A   Scattered Clouds
11:51 AM 78.1 °F - 53.1 °F 42% 30.09 in 10.0 mi NE 5.8 mph - N/A   Scattered Clouds
12:51 PM 79.0 °F - 55.0 °F 44% 30.09 in 10.0 mi Variable 5.8 mph - N/A   Scattered Clouds
1:51 PM 81.0 °F 80.7 °F 55.0 °F 41% 30.09 in 10.0 mi NNE 8.1 mph - N/A   Mostly Cloudy
2:51 PM 80.1 °F 80.0 °F 54.0 °F 40% 30.10 in 10.0 mi North 6.9 mph - N/A   Scattered Clouds
3:51 PM 81.0 °F - 52.0 °F 36% 30.09 in 10.0 mi North 11.5 mph - N/A   Partly Cloudy
4:51 PM 79.0 °F - 50.0 °F 36% 30.09 in 10.0 mi NNE 11.5 mph - N/A   Partly Cloudy
5:51 PM 79.0 °F - 48.9 °F 35% 30.09 in 10.0 mi North 10.4 mph - N/A   Scattered Clouds
6:51 PM 75.0 °F - 52.0 °F 44% 30.10 in 10.0 mi North 12.7 mph - N/A   Partly Cloudy
7:51 PM 70.0 °F - 51.1 °F 51% 30.12 in 10.0 mi North 8.1 mph - N/A   Partly Cloudy
8:51 PM 66.0 °F - 52.0 °F 60% 30.14 in 10.0 mi NNE 6.9 mph - N/A   Partly Cloudy
9:51 PM 63.0 °F - 53.1 °F 70% 30.16 in 10.0 mi NE 6.9 mph - N/A   Clear
10:51 PM 57.9 °F - 52.0 °F 81% 30.18 in 10.0 mi NE 5.8 mph - N/A   Clear
11:51 PM 60.1 °F - 53.1 °F 78% 30.19 in 10.0 mi NE 8.1 mph - N/A   Clear